Time,TemperatureF,DewpointF,PressureIn,WindDirection,WindDirectionDegrees,WindSpeedMPH,WindSpeedGustMPH,Humidity,HourlyPrecipIn,Conditions,Clouds,dailyrainin,SoftwareType,DateUTC
2013-05-06 00:02:00,44.2,43.1,30.04,NE,51,0.0,-999.0,96,0.00,,,0.00,WeatherSnoop3.0,2013-05-06 05:02:00,
2013-05-06 00:07:00,43.9,42.8,30.04,NE,51,0.0,-999.0,96,0.00,,,0.00,WeatherSnoop3.0,2013-05-06 05:07:00,
2013-05-06 00:12:00,43.6,42.5,30.05,NE,51,0.0,-999.0,96,0.00,,,0.00,WeatherSnoop3.0,2013-05-06 05:12:00,
2013-05-06 00:17:00,43.2,42.1,30.05,NE,51,0.0,-999.0,96,0.00,,,0.00,WeatherSnoop3.0,2013-05-06 05:17:00,
2013-05-06 00:22:00,43.1,42.0,30.04,NE,51,0.0,-999.0,96,0.00,,,0.00,WeatherSnoop3.0,2013-05-06 05:22:00,
2013-05-06 00:27:00,43.1,42.0,30.04,NE,51,0.0,-999.0,96,0.00,,,0.00,WeatherSnoop3.0,2013-05-06 05:27:00,
2013-05-06 00:32:00,43.1,42.0,30.04,NE,51,0.0,-999.0,96,0.00,,,0.00,WeatherSnoop3.0,2013-05-06 05:32:00,
2013-05-06 00:37:00,43.0,41.9,30.04,NE,51,0.0,-999.0,96,0.00,,,0.00,WeatherSnoop3.0,2013-05-06 05:37:00,
2013-05-06 00:42:00,42.9,41.8,30.04,NE,51,0.0,-999.0,96,0.00,,,0.00,WeatherSnoop3.0,2013-05-06 05:42:00,
2013-05-06 00:47:00,42.7,41.6,30.04,NE,51,0.0,-999.0,96,0.00,,,0.00,WeatherSnoop3.0,2013-05-06 05:47:00,
2013-05-06 00:52:00,42.4,41.3,30.04,NE,51,0.0,-999.0,96,0.00,,,0.00,WeatherSnoop3.0,2013-05-06 05:52:00,
2013-05-06 00:57:00,42.6,41.8,30.04,NE,51,0.0,-999.0,97,0.00,,,0.00,WeatherSnoop3.0,2013-05-06 05:57:00,
2013-05-06 01:02:00,42.8,42.0,30.04,NE,51,0.0,-999.0,97,0.00,,,0.00,WeatherSnoop3.0,2013-05-06 06:02:00,
2013-05-06 01:07:00,43.0,42.2,30.04,NE,51,0.0,-999.0,97,0.00,,,0.00,WeatherSnoop3.0,2013-05-06 06:07:00,
2013-05-06 01:12:00,43.3,42.5,30.04,NE,51,0.0,-999.0,97,0.00,,,0.00,WeatherSnoop3.0,2013-05-06 06:12:00,
2013-05-06 01:17:00,43.2,42.4,30.04,NE,51,0.0,-999.0,97,0.00,,,0.00,WeatherSnoop3.0,2013-05-06 06:17:00,
2013-05-06 01:22:00,43.1,42.3,30.03,NE,51,0.0,-999.0,97,0.00,,,0.00,WeatherSnoop3.0,2013-05-06 06:22:00,
2013-05-06 01:27:00,43.1,42.3,30.03,NE,51,0.0,-999.0,97,0.00,,,0.00,WeatherSnoop3.0,2013-05-06 06:27:00,
2013-05-06 01:32:00,43.0,42.2,30.03,NE,51,0.0,-999.0,97,0.00,,,0.00,WeatherSnoop3.0,2013-05-06 06:32:00,
2013-05-06 01:37:00,42.9,42.1,30.03,NE,51,0.0,-999.0,97,0.00,,,0.00,WeatherSnoop3.0,2013-05-06 06:37:00,
2013-05-06 01:42:00,42.8,42.0,30.03,NE,51,0.0,-999.0,97,0.00,,,0.00,WeatherSnoop3.0,2013-05-06 06:42:00,
2013-05-06 01:47:00,43.1,42.3,30.02,NE,51,0.0,-999.0,97,0.00,,,0.00,WeatherSnoop3.0,2013-05-06 06:47:00,
2013-05-06 01:52:00,43.3,42.8,30.03,NE,41,0.0,-999.0,98,0.00,,,0.00,WeatherSnoop3.0,2013-05-06 06:52:00,
2013-05-06 01:57:00,43.7,43.2,30.03,NE,41,0.0,-999.0,98,0.00,,,0.00,WeatherSnoop3.0,2013-05-06 06:57:00,
2013-05-06 02:02:00,43.7,43.2,30.03,WNW,285,1.0,-999.0,98,0.00,,,0.00,WeatherSnoop3.0,2013-05-06 07:02:00,
2013-05-06 02:07:00,43.7,43.2,30.03,WNW,285,0.0,-999.0,98,0.00,,,0.00,WeatherSnoop3.0,2013-05-06 07:07:00,
2013-05-06 02:12:00,43.7,43.2,30.03,WNW,285,0.0,-999.0,98,0.00,,,0.00,WeatherSnoop3.0,2013-05-06 07:12:00,
2013-05-06 02:17:00,43.9,43.4,30.03,WNW,285,0.0,-999.0,98,0.00,,,0.00,WeatherSnoop3.0,2013-05-06 07:17:00,
2013-05-06 02:22:00,43.9,43.4,30.03,WNW,285,0.0,-999.0,98,0.00,,,0.00,WeatherSnoop3.0,2013-05-06 07:22:00,
2013-05-06 02:27:00,44.0,43.5,30.03,WNW,285,0.0,-999.0,98,0.00,,,0.00,WeatherSnoop3.0,2013-05-06 07:27:00,
2013-05-06 02:32:00,44.1,43.6,30.03,WNW,285,0.0,-999.0,98,0.00,,,0.00,WeatherSnoop3.0,2013-05-06 07:32:00,
2013-05-06 02:37:00,43.8,43.3,30.03,WNW,285,0.0,-999.0,98,0.00,,,0.00,WeatherSnoop3.0,2013-05-06 07:37:00,
2013-05-06 02:42:00,43.4,42.6,30.03,WNW,285,0.0,-999.0,97,0.00,,,0.00,WeatherSnoop3.0,2013-05-06 07:42:00,
2013-05-06 02:47:00,43.4,42.6,30.03,WNW,285,0.0,-999.0,97,0.00,,,0.00,WeatherSnoop3.0,2013-05-06 07:47:00,
2013-05-06 02:52:00,43.7,43.2,30.03,NNW,328,0.0,-999.0,98,0.00,,,0.00,WeatherSnoop3.0,2013-05-06 07:52:00,
2013-05-06 02:57:00,43.9,43.4,30.03,NNW,328,0.0,-999.0,98,0.00,,,0.00,WeatherSnoop3.0,2013-05-06 07:57:00,
2013-05-06 03:02:00,44.1,43.6,30.03,NNE,24,0.0,-999.0,98,0.00,,,0.00,WeatherSnoop3.0,2013-05-06 08:02:00,
2013-05-06 03:07:00,44.1,43.6,30.03,NNE,25,0.0,-999.0,98,0.00,,,0.00,WeatherSnoop3.0,2013-05-06 08:07:00,
2013-05-06 03:12:00,43.8,43.3,30.03,NNE,16,1.0,-999.0,98,0.00,,,0.00,WeatherSnoop3.0,2013-05-06 08:12:00,
2013-05-06 03:17:00,44.0,43.5,30.03,North,354,0.0,-999.0,98,0.00,,,0.00,WeatherSnoop3.0,2013-05-06 08:17:00,
2013-05-06 03:22:00,44.0,43.5,30.03,North,359,0.0,-999.0,98,0.00,,,0.00,WeatherSnoop3.0,2013-05-06 08:22:00,
2013-05-06 03:27:00,43.7,42.9,30.03,North,359,0.0,-999.0,97,0.00,,,0.00,WeatherSnoop3.0,2013-05-06 08:27:00,
2013-05-06 03:32:00,42.9,42.1,30.03,North,360,0.0,-999.0,97,0.00,,,0.00,WeatherSnoop3.0,2013-05-06 08:32:00,
2013-05-06 03:37:00,42.5,41.7,30.03,NW,322,0.0,-999.0,97,0.00,,,0.00,WeatherSnoop3.0,2013-05-06 08:37:00,
2013-05-06 03:42:00,42.2,41.4,30.03,WNW,300,0.0,-999.0,97,0.00,,,0.00,WeatherSnoop3.0,2013-05-06 08:42:00,
2013-05-06 03:47:00,42.2,41.4,30.03,WNW,302,0.0,-999.0,97,0.00,,,0.00,WeatherSnoop3.0,2013-05-06 08:47:00,
2013-05-06 03:52:00,42.0,41.2,30.03,WNW,302,0.0,-999.0,97,0.00,,,0.00,WeatherSnoop3.0,2013-05-06 08:52:00,
2013-05-06 03:57:00,42.0,41.2,30.03,WNW,302,0.0,-999.0,97,0.00,,,0.00,WeatherSnoop3.0,2013-05-06 08:57:00,
2013-05-06 04:02:00,41.8,41.0,30.03,WNW,302,0.0,-999.0,97,0.00,,,0.00,WeatherSnoop3.0,2013-05-06 09:02:00,
2013-05-06 04:07:00,41.7,40.9,30.03,WNW,302,0.0,-999.0,97,0.00,,,0.00,WeatherSnoop3.0,2013-05-06 09:07:00,
2013-05-06 04:12:00,42.0,41.5,30.03,NNW,340,0.0,-999.0,98,0.00,,,0.00,WeatherSnoop3.0,2013-05-06 09:12:00,
2013-05-06 04:17:00,42.5,42.0,30.03,NNW,340,0.0,-999.0,98,0.00,,,0.00,WeatherSnoop3.0,2013-05-06 09:17:00,
2013-05-06 04:22:00,42.4,41.9,30.03,NNW,340,0.0,-999.0,98,0.00,,,0.00,WeatherSnoop3.0,2013-05-06 09:22:00,
2013-05-06 04:27:00,42.3,41.8,30.03,NNW,340,0.0,-999.0,98,0.00,,,0.00,WeatherSnoop3.0,2013-05-06 09:27:00,
2013-05-06 04:32:00,42.7,42.2,30.03,NNW,345,0.0,-999.0,98,0.00,,,0.00,WeatherSnoop3.0,2013-05-06 09:32:00,
2013-05-06 04:37:00,43.4,42.9,30.02,NNE,15,1.0,-999.0,98,0.00,,,0.00,WeatherSnoop3.0,2013-05-06 09:37:00,
2013-05-06 04:42:00,43.5,43.0,30.03,North,360,0.0,-999.0,98,0.00,,,0.00,WeatherSnoop3.0,2013-05-06 09:42:00,
2013-05-06 04:47:00,43.4,42.9,30.02,NW,311,0.0,-999.0,98,0.00,,,0.00,WeatherSnoop3.0,2013-05-06 09:47:00,
2013-05-06 04:52:00,43.5,43.0,30.03,NNE,13,1.0,-999.0,98,0.00,,,0.00,WeatherSnoop3.0,2013-05-06 09:52:00,
2013-05-06 04:57:00,43.5,43.0,30.03,NE,56,0.0,-999.0,98,0.00,,,0.00,WeatherSnoop3.0,2013-05-06 09:57:00,
2013-05-06 05:02:00,43.1,42.6,30.03,NE,55,0.0,-999.0,98,0.00,,,0.00,WeatherSnoop3.0,2013-05-06 10:02:00,
2013-05-06 05:07:00,42.6,42.1,30.03,NE,55,0.0,-999.0,98,0.00,,,0.00,WeatherSnoop3.0,2013-05-06 10:07:00,
2013-05-06 05:12:00,42.4,41.9,30.03,NE,55,0.0,-999.0,98,0.00,,,0.00,WeatherSnoop3.0,2013-05-06 10:12:00,
2013-05-06 05:17:00,42.3,41.8,30.03,NNE,20,0.0,-999.0,98,0.00,,,0.00,WeatherSnoop3.0,2013-05-06 10:17:00,
2013-05-06 05:22:00,42.4,41.9,30.04,NNE,20,0.0,-999.0,98,0.00,,,0.00,WeatherSnoop3.0,2013-05-06 10:22:00,
2013-05-06 05:27:00,42.0,41.5,30.04,NNE,15,0.0,-999.0,98,0.00,,,0.00,WeatherSnoop3.0,2013-05-06 10:27:00,
2013-05-06 05:32:00,41.7,40.9,30.04,West,281,0.0,-999.0,97,0.00,,,0.00,WeatherSnoop3.0,2013-05-06 10:32:00,
2013-05-06 05:37:00,41.9,41.4,30.04,NNE,32,0.0,-999.0,98,0.00,,,0.00,WeatherSnoop3.0,2013-05-06 10:37:00,
2013-05-06 05:42:00,42.4,41.9,30.04,ENE,68,1.0,-999.0,98,0.00,,,0.00,WeatherSnoop3.0,2013-05-06 10:42:00,
2013-05-06 05:47:00,42.7,42.2,30.04,NNE,15,0.0,-999.0,98,0.00,,,0.00,WeatherSnoop3.0,2013-05-06 10:47:00,
2013-05-06 05:52:00,42.8,42.3,30.04,NNW,347,0.0,-999.0,98,0.00,,,0.00,WeatherSnoop3.0,2013-05-06 10:52:00,
2013-05-06 05:57:00,43.0,42.5,30.04,North,357,1.0,-999.0,98,0.00,,,0.00,WeatherSnoop3.0,2013-05-06 10:57:00,
2013-05-06 06:02:00,43.1,42.6,30.04,North,6,0.0,-999.0,98,0.00,,,0.00,WeatherSnoop3.0,2013-05-06 11:02:00,
2013-05-06 06:07:00,43.1,42.6,30.04,North,4,0.0,-999.0,98,0.00,,,0.00,WeatherSnoop3.0,2013-05-06 11:07:00,
2013-05-06 06:12:00,43.0,42.5,30.04,NNE,20,0.0,-999.0,98,0.00,,,0.00,WeatherSnoop3.0,2013-05-06 11:12:00,
2013-05-06 06:17:00,43.0,42.5,30.04,NNE,16,0.0,-999.0,98,0.00,,,0.00,WeatherSnoop3.0,2013-05-06 11:17:00,
2013-05-06 06:22:00,43.1,42.6,30.04,North,11,2.0,-999.0,98,0.00,,,0.00,WeatherSnoop3.0,2013-05-06 11:22:00,
2013-05-06 06:27:00,43.2,42.7,30.04,NNW,347,3.0,-999.0,98,0.00,,,0.00,WeatherSnoop3.0,2013-05-06 11:27:00,
2013-05-06 06:32:00,43.1,42.6,30.04,North,356,2.0,-999.0,98,0.00,,,0.00,WeatherSnoop3.0,2013-05-06 11:32:00,
2013-05-06 06:37:00,43.0,42.5,30.04,NNE,18,2.0,-999.0,98,0.00,,,0.00,WeatherSnoop3.0,2013-05-06 11:37:00,
2013-05-06 06:42:00,42.6,42.1,30.04,North,11,0.0,-999.0,98,0.00,,,0.00,WeatherSnoop3.0,2013-05-06 11:42:00,
2013-05-06 06:47:00,42.6,42.1,30.04,NNE,16,2.0,-999.0,98,0.00,,,0.00,WeatherSnoop3.0,2013-05-06 11:47:00,
2013-05-06 06:52:00,42.6,42.1,30.04,NNE,26,0.0,-999.0,98,0.00,,,0.00,WeatherSnoop3.0,2013-05-06 11:52:00,
2013-05-06 06:57:00,42.5,42.0,30.04,NNE,19,1.0,-999.0,98,0.00,,,0.00,WeatherSnoop3.0,2013-05-06 11:57:00,
2013-05-06 07:02:00,42.6,42.1,30.05,NE,46,1.0,-999.0,98,0.00,,,0.00,WeatherSnoop3.0,2013-05-06 12:02:00,
2013-05-06 07:07:00,42.9,42.4,30.05,NE,39,0.0,-999.0,98,0.00,,,0.00,WeatherSnoop3.0,2013-05-06 12:07:00,
2013-05-06 07:12:00,43.3,42.8,30.05,NNE,13,0.0,-999.0,98,0.00,,,0.00,WeatherSnoop3.0,2013-05-06 12:12:00,
2013-05-06 07:17:00,43.7,43.2,30.05,North,349,0.0,-999.0,98,0.00,,,0.00,WeatherSnoop3.0,2013-05-06 12:17:00,
2013-05-06 07:22:00,44.1,43.6,30.05,NNE,27,0.0,-999.0,98,0.00,,,0.00,WeatherSnoop3.0,2013-05-06 12:22:00,
2013-05-06 07:27:00,44.5,44.0,30.05,NNE,18,1.0,-999.0,98,0.00,,,0.00,WeatherSnoop3.0,2013-05-06 12:27:00,
2013-05-06 07:32:00,45.0,44.5,30.06,NNE,13,2.0,-999.0,98,0.00,,,0.00,WeatherSnoop3.0,2013-05-06 12:32:00,
2013-05-06 07:37:00,45.6,45.1,30.06,NNE,27,1.0,-999.0,98,0.00,,,0.00,WeatherSnoop3.0,2013-05-06 12:37:00,
2013-05-06 07:42:00,46.0,45.5,30.06,NE,34,1.0,-999.0,98,0.00,,,0.00,WeatherSnoop3.0,2013-05-06 12:42:00,
2013-05-06 07:47:00,46.3,45.8,30.06,North,352,4.0,-999.0,98,0.00,,,0.00,WeatherSnoop3.0,2013-05-06 12:47:00,
2013-05-06 07:52:00,46.7,46.2,30.06,NNE,28,1.0,-999.0,98,0.00,,,0.00,WeatherSnoop3.0,2013-05-06 12:52:00,
2013-05-06 07:57:00,47.1,46.6,30.06,NE,36,2.0,-999.0,98,0.00,,,0.00,WeatherSnoop3.0,2013-05-06 12:57:00,
2013-05-06 08:02:00,47.4,46.9,30.07,NE,44,0.0,-999.0,98,0.00,,,0.00,WeatherSnoop3.0,2013-05-06 13:02:00,
2013-05-06 08:07:00,47.8,47.3,30.07,North,360,3.0,-999.0,98,0.00,,,0.00,WeatherSnoop3.0,2013-05-06 13:07:00,
2013-05-06 08:12:00,48.1,47.6,30.07,NE,36,6.0,-999.0,98,0.00,,,0.00,WeatherSnoop3.0,2013-05-06 13:12:00,
2013-05-06 08:17:00,48.0,47.2,30.07,NNE,23,7.0,-999.0,97,0.00,,,0.00,WeatherSnoop3.0,2013-05-06 13:17:00,
2013-05-06 08:22:00,47.4,46.3,30.08,NNE,15,5.0,-999.0,96,0.00,,,0.00,WeatherSnoop3.0,2013-05-06 13:22:00,
2013-05-06 08:27:00,47.2,46.4,30.08,NNE,32,2.0,-999.0,97,0.00,,,0.00,WeatherSnoop3.0,2013-05-06 13:27:00,
2013-05-06 08:32:00,47.3,46.5,30.08,NE,47,2.0,-999.0,97,0.00,,,0.00,WeatherSnoop3.0,2013-05-06 13:32:00,
2013-05-06 08:37:00,47.3,46.5,30.08,East,101,3.0,-999.0,97,0.00,,,0.00,WeatherSnoop3.0,2013-05-06 13:37:00,
2013-05-06 08:42:00,47.3,46.5,30.08,NE,39,5.0,-999.0,97,0.00,,,0.00,WeatherSnoop3.0,2013-05-06 13:42:00,
2013-05-06 08:47:00,47.5,47.0,30.07,North,349,2.0,-999.0,98,0.00,,,0.00,WeatherSnoop3.0,2013-05-06 13:47:00,
2013-05-06 08:52:00,47.5,46.7,30.08,NNE,20,5.0,-999.0,97,0.00,,,0.00,WeatherSnoop3.0,2013-05-06 13:52:00,
2013-05-06 08:57:00,47.4,46.6,30.08,NE,53,5.0,-999.0,97,0.00,,,0.00,WeatherSnoop3.0,2013-05-06 13:57:00,
2013-05-06 09:02:00,47.5,47.0,30.08,NE,34,4.0,-999.0,98,0.00,,,0.00,WeatherSnoop3.0,2013-05-06 14:02:00,
2013-05-06 09:07:00,47.9,47.4,30.08,NE,50,2.0,-999.0,98,0.00,,,0.00,WeatherSnoop3.0,2013-05-06 14:07:00,
2013-05-06 09:12:00,48.2,47.7,30.08,NE,41,3.0,-999.0,98,0.00,,,0.00,WeatherSnoop3.0,2013-05-06 14:12:00,
2013-05-06 09:17:00,48.3,47.8,30.08,North,359,4.0,-999.0,98,0.00,,,0.00,WeatherSnoop3.0,2013-05-06 14:17:00,
2013-05-06 09:22:00,48.5,48.0,30.08,North,4,3.0,-999.0,98,0.00,,,0.00,WeatherSnoop3.0,2013-05-06 14:22:00,
2013-05-06 09:27:00,48.9,48.4,30.08,ENE,72,3.0,-999.0,98,0.00,,,0.00,WeatherSnoop3.0,2013-05-06 14:27:00,
2013-05-06 09:32:00,49.2,48.7,30.08,NE,43,4.0,-999.0,98,0.00,,,0.00,WeatherSnoop3.0,2013-05-06 14:32:00,
2013-05-06 09:37:00,49.3,48.5,30.08,North,4,5.0,-999.0,97,0.00,,,0.00,WeatherSnoop3.0,2013-05-06 14:37:00,
2013-05-06 09:42:00,49.6,48.8,30.08,North,6,4.0,-999.0,97,0.00,,,0.00,WeatherSnoop3.0,2013-05-06 14:42:00,
2013-05-06 09:47:00,49.9,49.1,30.08,NNE,18,5.0,-999.0,97,0.00,,,0.00,WeatherSnoop3.0,2013-05-06 14:47:00,
2013-05-06 09:52:00,49.8,48.7,30.08,North,5,3.0,-999.0,96,0.00,,,0.00,WeatherSnoop3.0,2013-05-06 14:52:00,
2013-05-06 09:57:00,50.2,48.8,30.08,ENE,59,2.0,-999.0,95,0.00,,,0.00,WeatherSnoop3.0,2013-05-06 14:57:00,
2013-05-06 10:02:00,50.3,48.9,30.08,NE,43,5.0,-999.0,95,0.00,,,0.00,WeatherSnoop3.0,2013-05-06 15:02:00,
2013-05-06 10:07:00,50.4,49.0,30.08,NNE,13,4.0,-999.0,95,0.00,,,0.00,WeatherSnoop3.0,2013-05-06 15:07:00,
2013-05-06 10:12:00,50.5,49.1,30.08,WSW,245,2.0,-999.0,95,0.00,,,0.00,WeatherSnoop3.0,2013-05-06 15:12:00,
2013-05-06 10:17:00,50.7,49.0,30.08,NNE,32,3.0,-999.0,94,0.00,,,0.00,WeatherSnoop3.0,2013-05-06 15:17:00,
2013-05-06 10:22:00,50.8,49.1,30.08,North,4,4.0,-999.0,94,0.00,,,0.00,WeatherSnoop3.0,2013-05-06 15:22:00,
2013-05-06 10:27:00,50.9,49.2,30.08,NE,36,6.0,-999.0,94,0.00,,,0.00,WeatherSnoop3.0,2013-05-06 15:27:00,
2013-05-06 10:32:00,51.3,49.3,30.08,ENE,75,1.0,-999.0,93,0.00,,,0.00,WeatherSnoop3.0,2013-05-06 15:32:00,
2013-05-06 10:37:00,51.8,49.8,30.08,NE,47,6.0,-999.0,93,0.00,,,0.00,WeatherSnoop3.0,2013-05-06 15:37:00,
2013-05-06 10:42:00,52.4,50.1,30.08,North,359,2.0,-999.0,92,0.00,,,0.00,WeatherSnoop3.0,2013-05-06 15:42:00,
2013-05-06 10:47:00,52.9,50.0,30.08,NNW,346,5.0,-999.0,90,0.00,,,0.00,WeatherSnoop3.0,2013-05-06 15:47:00,
2013-05-06 10:52:00,53.6,50.7,30.08,NE,37,1.0,-999.0,90,0.00,,,0.00,WeatherSnoop3.0,2013-05-06 15:52:00,
2013-05-06 10:57:00,54.2,51.0,30.07,NNE,25,9.0,-999.0,89,0.00,,,0.00,WeatherSnoop3.0,2013-05-06 15:57:00,
2013-05-06 11:02:00,54.9,51.4,30.07,North,8,4.0,-999.0,88,0.00,,,0.00,WeatherSnoop3.0,2013-05-06 16:02:00,
2013-05-06 11:07:00,54.7,50.9,30.07,NNE,23,0.0,-999.0,87,0.00,,,0.00,WeatherSnoop3.0,2013-05-06 16:07:00,
2013-05-06 11:12:00,55.1,51.3,30.07,NNE,26,4.0,-999.0,87,0.00,,,0.00,WeatherSnoop3.0,2013-05-06 16:12:00,
2013-05-06 11:17:00,55.2,50.8,30.07,NE,35,7.0,-999.0,85,0.00,,,0.00,WeatherSnoop3.0,2013-05-06 16:17:00,
2013-05-06 11:22:00,55.2,51.1,30.07,NNE,27,2.0,-999.0,86,0.00,,,0.00,WeatherSnoop3.0,2013-05-06 16:22:00,
2013-05-06 11:27:00,55.7,51.6,30.07,NNE,29,3.0,-999.0,86,0.00,,,0.00,WeatherSnoop3.0,2013-05-06 16:27:00,
2013-05-06 11:32:00,56.3,51.5,30.07,ENE,63,5.0,-999.0,84,0.00,,,0.00,WeatherSnoop3.0,2013-05-06 16:32:00,
2013-05-06 11:37:00,56.3,51.2,30.07,WNW,287,1.0,-999.0,83,0.00,,,0.00,WeatherSnoop3.0,2013-05-06 16:37:00,
2013-05-06 11:42:00,56.8,52.0,30.07,NNE,32,1.0,-999.0,84,0.00,,,0.00,WeatherSnoop3.0,2013-05-06 16:42:00,
2013-05-06 11:47:00,57.3,51.9,30.06,North,354,3.0,-999.0,82,0.00,,,0.00,WeatherSnoop3.0,2013-05-06 16:47:00,
2013-05-06 11:52:00,57.5,51.4,30.06,NNE,23,4.0,-999.0,80,0.00,,,0.00,WeatherSnoop3.0,2013-05-06 16:52:00,
2013-05-06 11:57:00,57.7,52.2,30.06,NNE,12,3.0,-999.0,82,0.00,,,0.00,WeatherSnoop3.0,2013-05-06 16:57:00,
2013-05-06 12:02:00,57.7,51.2,30.06,NNE,20,7.0,-999.0,79,0.00,,,0.00,WeatherSnoop3.0,2013-05-06 17:02:00,
2013-05-06 12:07:00,57.7,52.2,30.06,NNW,340,2.0,-999.0,82,0.00,,,0.00,WeatherSnoop3.0,2013-05-06 17:07:00,
2013-05-06 12:12:00,58.3,52.2,30.06,NE,53,9.0,-999.0,80,0.00,,,0.00,WeatherSnoop3.0,2013-05-06 17:12:00,
2013-05-06 12:17:00,59.0,52.1,30.06,NE,53,5.0,-999.0,78,0.00,,,0.00,WeatherSnoop3.0,2013-05-06 17:17:00,
2013-05-06 12:22:00,59.2,52.7,30.05,NNW,331,4.0,-999.0,79,0.00,,,0.00,WeatherSnoop3.0,2013-05-06 17:22:00,
2013-05-06 12:27:00,59.2,52.3,30.05,NNE,12,2.0,-999.0,78,0.00,,,0.00,WeatherSnoop3.0,2013-05-06 17:27:00,
2013-05-06 12:32:00,59.3,52.8,30.06,WNW,289,4.0,-999.0,79,0.00,,,0.00,WeatherSnoop3.0,2013-05-06 17:32:00,
2013-05-06 12:37:00,59.7,51.8,30.05,NE,43,2.0,-999.0,75,0.00,,,0.00,WeatherSnoop3.0,2013-05-06 17:37:00,
2013-05-06 12:42:00,59.6,52.0,30.05,NE,46,2.0,-999.0,76,0.00,,,0.00,WeatherSnoop3.0,2013-05-06 17:42:00,
2013-05-06 12:47:00,59.4,51.5,30.05,NE,55,1.0,-999.0,75,0.00,,,0.00,WeatherSnoop3.0,2013-05-06 17:47:00,
2013-05-06 12:52:00,59.7,52.1,30.05,NNE,30,5.0,-999.0,76,0.00,,,0.00,WeatherSnoop3.0,2013-05-06 17:52:00,
2013-05-06 12:57:00,59.7,52.1,30.05,ENE,63,4.0,-999.0,76,0.00,,,0.00,WeatherSnoop3.0,2013-05-06 17:57:00,
2013-05-06 13:02:00,60.5,54.0,30.05,North,6,6.0,-999.0,79,0.00,,,0.00,WeatherSnoop3.0,2013-05-06 18:02:00,
2013-05-06 13:07:00,61.3,53.7,30.05,ENE,63,4.0,-999.0,76,0.00,,,0.00,WeatherSnoop3.0,2013-05-06 18:07:00,
2013-05-06 13:12:00,60.9,53.6,30.04,NE,43,2.0,-999.0,77,0.00,,,0.00,WeatherSnoop3.0,2013-05-06 18:12:00,
2013-05-06 13:17:00,60.7,52.4,30.04,ENE,65,4.0,-999.0,74,0.00,,,0.00,WeatherSnoop3.0,2013-05-06 18:17:00,
2013-05-06 13:22:00,60.3,53.1,30.04,North,358,2.0,-999.0,77,0.00,,,0.00,WeatherSnoop3.0,2013-05-06 18:22:00,
2013-05-06 13:27:00,60.4,53.2,30.03,NNE,18,7.0,-999.0,77,0.00,,,0.00,WeatherSnoop3.0,2013-05-06 18:27:00,
2013-05-06 13:32:00,60.1,52.1,30.04,NE,34,1.0,-999.0,75,0.00,,,0.00,WeatherSnoop3.0,2013-05-06 18:32:00,
2013-05-06 13:37:00,60.0,53.5,30.03,ENE,65,7.0,-999.0,79,0.00,,,0.00,WeatherSnoop3.0,2013-05-06 18:37:00,
2013-05-06 13:42:00,60.3,53.4,30.03,ENE,70,3.0,-999.0,78,0.00,,,0.00,WeatherSnoop3.0,2013-05-06 18:42:00,
2013-05-06 13:47:00,60.9,54.0,30.03,NNW,340,3.0,-999.0,78,0.00,,,0.00,WeatherSnoop3.0,2013-05-06 18:47:00,
2013-05-06 13:52:00,61.5,53.5,30.03,NE,37,8.0,-999.0,75,0.00,,,0.00,WeatherSnoop3.0,2013-05-06 18:52:00,
2013-05-06 13:57:00,61.2,52.8,30.03,NE,35,5.0,-999.0,74,0.00,,,0.00,WeatherSnoop3.0,2013-05-06 18:57:00,
2013-05-06 14:02:00,61.4,53.0,30.02,NNE,20,7.0,-999.0,74,0.00,,,0.00,WeatherSnoop3.0,2013-05-06 19:02:00,
2013-05-06 14:07:00,61.5,54.2,30.02,ENE,58,1.0,-999.0,77,0.00,,,0.00,WeatherSnoop3.0,2013-05-06 19:07:00,
2013-05-06 14:12:00,61.7,53.7,30.02,North,8,9.0,-999.0,75,0.00,,,0.00,WeatherSnoop3.0,2013-05-06 19:12:00,
2013-05-06 14:17:00,61.7,53.7,30.02,ENE,59,3.0,-999.0,75,0.00,,,0.00,WeatherSnoop3.0,2013-05-06 19:17:00,
2013-05-06 14:22:00,61.6,54.0,30.02,North,360,6.0,-999.0,76,0.00,,,0.00,WeatherSnoop3.0,2013-05-06 19:22:00,
2013-05-06 14:27:00,62.4,53.6,30.02,NNE,18,2.0,-999.0,73,0.00,,,0.00,WeatherSnoop3.0,2013-05-06 19:27:00,
2013-05-06 14:32:00,62.8,53.6,30.02,ENE,68,3.0,-999.0,72,0.00,,,0.00,WeatherSnoop3.0,2013-05-06 19:32:00,
2013-05-06 14:37:00,62.5,53.3,30.02,NNE,32,4.0,-999.0,72,0.00,,,0.00,WeatherSnoop3.0,2013-05-06 19:37:00,
2013-05-06 14:42:00,62.7,53.9,30.01,NE,53,1.0,-999.0,73,0.00,,,0.00,WeatherSnoop3.0,2013-05-06 19:42:00,
2013-05-06 14:47:00,62.9,53.7,30.01,SE,133,0.0,-999.0,72,0.00,,,0.00,WeatherSnoop3.0,2013-05-06 19:47:00,
2013-05-06 14:52:00,63.2,54.8,30.01,NNE,32,6.0,-999.0,74,0.00,,,0.00,WeatherSnoop3.0,2013-05-06 19:52:00,
2013-05-06 14:57:00,63.1,55.0,30.01,WSW,256,0.0,-999.0,75,0.00,,,0.00,WeatherSnoop3.0,2013-05-06 19:57:00,
2013-05-06 15:02:00,63.8,56.1,30.01,NNE,26,3.0,-999.0,76,0.00,,,0.00,WeatherSnoop3.0,2013-05-06 20:02:00,
2013-05-06 15:07:00,64.1,55.3,30.01,SW,233,2.0,-999.0,73,0.00,,,0.00,WeatherSnoop3.0,2013-05-06 20:07:00,
2013-05-06 15:12:00,64.4,54.4,30.01,NE,56,4.0,-999.0,70,0.00,,,0.00,WeatherSnoop3.0,2013-05-06 20:12:00,
2013-05-06 15:17:00,64.3,56.2,30.00,ENE,61,2.0,-999.0,75,0.00,,,0.00,WeatherSnoop3.0,2013-05-06 20:17:00,
2013-05-06 15:22:00,63.8,53.4,30.00,NE,56,0.0,-999.0,69,0.00,,,0.00,WeatherSnoop3.0,2013-05-06 20:22:00,
2013-05-06 15:27:00,63.9,54.7,30.00,NE,52,4.0,-999.0,72,0.00,,,0.00,WeatherSnoop3.0,2013-05-06 20:27:00,
2013-05-06 15:32:00,64.0,54.8,29.99,ENE,59,1.0,-999.0,72,0.00,,,0.00,WeatherSnoop3.0,2013-05-06 20:32:00,
2013-05-06 15:37:00,63.8,54.6,29.99,WSW,248,0.0,-999.0,72,0.00,,,0.00,WeatherSnoop3.0,2013-05-06 20:37:00,
2013-05-06 15:42:00,64.0,54.4,29.99,NNW,327,0.0,-999.0,71,0.00,,,0.00,WeatherSnoop3.0,2013-05-06 20:42:00,
2013-05-06 15:47:00,64.7,55.1,29.99,NNE,23,0.0,-999.0,71,0.00,,,0.00,WeatherSnoop3.0,2013-05-06 20:47:00,
2013-05-06 15:52:00,65.0,55.0,29.99,NE,49,2.0,-999.0,70,0.00,,,0.00,WeatherSnoop3.0,2013-05-06 20:52:00,
2013-05-06 15:57:00,64.4,55.2,29.99,NNE,20,5.0,-999.0,72,0.00,,,0.00,WeatherSnoop3.0,2013-05-06 20:57:00,
2013-05-06 16:02:00,64.7,55.1,29.98,NE,53,5.0,-999.0,71,0.00,,,0.00,WeatherSnoop3.0,2013-05-06 21:02:00,
2013-05-06 16:07:00,64.5,54.9,29.98,North,360,2.0,-999.0,71,0.00,,,0.00,WeatherSnoop3.0,2013-05-06 21:07:00,
2013-05-06 16:12:00,64.3,54.3,29.98,North,9,4.0,-999.0,70,0.00,,,0.00,WeatherSnoop3.0,2013-05-06 21:12:00,
2013-05-06 16:17:00,64.3,55.5,29.98,East,96,2.0,-999.0,73,0.00,,,0.00,WeatherSnoop3.0,2013-05-06 21:17:00,
2013-05-06 16:22:00,65.2,55.2,29.97,SE,145,0.0,-999.0,70,0.00,,,0.00,WeatherSnoop3.0,2013-05-06 21:22:00,
2013-05-06 16:27:00,66.1,54.8,29.97,WSW,252,1.0,-999.0,67,0.00,,,0.00,WeatherSnoop3.0,2013-05-06 21:27:00,
2013-05-06 16:32:00,66.2,54.9,29.97,SSW,200,0.0,-999.0,67,0.00,,,0.00,WeatherSnoop3.0,2013-05-06 21:32:00,
2013-05-06 16:37:00,66.4,55.5,29.97,NNE,28,3.0,-999.0,68,0.00,,,0.00,WeatherSnoop3.0,2013-05-06 21:37:00,
2013-05-06 16:42:00,66.4,55.1,29.97,NNE,23,3.0,-999.0,67,0.00,,,0.00,WeatherSnoop3.0,2013-05-06 21:42:00,
2013-05-06 16:47:00,66.0,55.1,29.97,ENE,61,2.0,-999.0,68,0.00,,,0.00,WeatherSnoop3.0,2013-05-06 21:47:00,
2013-05-06 16:52:00,66.2,54.5,29.97,NNE,26,4.0,-999.0,66,0.00,,,0.00,WeatherSnoop3.0,2013-05-06 21:52:00,
2013-05-06 16:57:00,66.4,55.9,29.96,ENE,75,0.0,-999.0,69,0.00,,,0.00,WeatherSnoop3.0,2013-05-06 21:57:00,
2013-05-06 17:02:00,66.4,55.9,29.96,North,358,5.0,-999.0,69,0.00,,,0.00,WeatherSnoop3.0,2013-05-06 22:02:00,
2013-05-06 17:07:00,66.1,54.8,29.96,North,358,1.0,-999.0,67,0.00,,,0.00,WeatherSnoop3.0,2013-05-06 22:07:00,
2013-05-06 17:12:00,65.8,54.5,29.96,ENE,63,3.0,-999.0,67,0.00,,,0.00,WeatherSnoop3.0,2013-05-06 22:12:00,
2013-05-06 17:17:00,65.7,53.6,29.96,ESE,106,0.0,-999.0,65,0.00,,,0.00,WeatherSnoop3.0,2013-05-06 22:17:00,
2013-05-06 17:22:00,66.0,54.7,29.95,NNE,24,1.0,-999.0,67,0.00,,,0.00,WeatherSnoop3.0,2013-05-06 22:22:00,
2013-05-06 17:27:00,66.1,54.4,29.95,ENE,74,3.0,-999.0,66,0.00,,,0.00,WeatherSnoop3.0,2013-05-06 22:27:00,
2013-05-06 17:32:00,66.2,54.1,29.95,ENE,57,4.0,-999.0,65,0.00,,,0.00,WeatherSnoop3.0,2013-05-06 22:32:00,
2013-05-06 17:37:00,66.3,53.8,29.95,East,94,2.0,-999.0,64,0.00,,,0.00,WeatherSnoop3.0,2013-05-06 22:37:00,
2013-05-06 17:42:00,66.6,54.0,29.95,ESE,117,0.0,-999.0,64,0.00,,,0.00,WeatherSnoop3.0,2013-05-06 22:42:00,
2013-05-06 17:47:00,67.1,54.5,29.95,ESE,107,1.0,-999.0,64,0.00,,,0.00,WeatherSnoop3.0,2013-05-06 22:47:00,
2013-05-06 17:52:00,67.1,52.7,29.95,NE,55,2.0,-999.0,60,0.00,,,0.00,WeatherSnoop3.0,2013-05-06 22:52:00,
2013-05-06 17:57:00,66.7,52.4,29.95,NNE,28,1.0,-999.0,60,0.00,,,0.00,WeatherSnoop3.0,2013-05-06 22:57:00,
2013-05-06 18:02:00,66.9,53.0,29.95,North,351,1.0,-999.0,61,0.00,,,0.00,WeatherSnoop3.0,2013-05-06 23:02:00,
2013-05-06 18:07:00,67.1,52.7,29.95,WSW,245,0.0,-999.0,60,0.00,,,0.00,WeatherSnoop3.0,2013-05-06 23:07:00,
2013-05-06 18:12:00,67.4,53.9,29.94,NE,39,3.0,-999.0,62,0.00,,,0.00,WeatherSnoop3.0,2013-05-06 23:12:00,
2013-05-06 18:17:00,66.8,53.8,29.94,NE,41,2.0,-999.0,63,0.00,,,0.00,WeatherSnoop3.0,2013-05-06 23:17:00,
2013-05-06 18:22:00,66.5,53.1,29.94,West,260,0.0,-999.0,62,0.00,,,0.00,WeatherSnoop3.0,2013-05-06 23:22:00,
2013-05-06 18:27:00,67.3,54.3,29.94,SW,221,0.0,-999.0,63,0.00,,,0.00,WeatherSnoop3.0,2013-05-06 23:27:00,
2013-05-06 18:32:00,68.1,54.6,29.95,NNE,32,2.0,-999.0,62,0.00,,,0.00,WeatherSnoop3.0,2013-05-06 23:32:00,
2013-05-06 18:37:00,66.9,53.4,29.94,NNE,13,2.0,-999.0,62,0.00,,,0.00,WeatherSnoop3.0,2013-05-06 23:37:00,
2013-05-06 18:42:00,66.4,53.8,29.95,NE,50,2.0,-999.0,64,0.00,,,0.00,WeatherSnoop3.0,2013-05-06 23:42:00,
2013-05-06 18:47:00,66.3,53.8,29.95,NE,44,2.0,-999.0,64,0.00,,,0.00,WeatherSnoop3.0,2013-05-06 23:47:00,
2013-05-06 18:52:00,66.1,54.4,29.95,East,92,0.0,-999.0,66,0.00,,,0.00,WeatherSnoop3.0,2013-05-06 23:52:00,
2013-05-06 18:57:00,66.2,53.7,29.95,NE,43,3.0,-999.0,64,0.00,,,0.00,WeatherSnoop3.0,2013-05-06 23:57:00,
2013-05-06 19:02:00,66.0,54.7,29.95,ENE,65,2.0,-999.0,67,0.00,,,0.00,WeatherSnoop3.0,2013-05-07 00:02:00,
2013-05-06 19:07:00,65.7,54.0,29.95,NNE,23,1.0,-999.0,66,0.00,,,0.00,WeatherSnoop3.0,2013-05-07 00:07:00,
2013-05-06 19:12:00,65.4,54.2,29.95,NE,39,1.0,-999.0,67,0.00,,,0.00,WeatherSnoop3.0,2013-05-07 00:12:00,
2013-05-06 19:17:00,65.2,54.0,29.95,ENE,61,3.0,-999.0,67,0.00,,,0.00,WeatherSnoop3.0,2013-05-07 00:17:00,
2013-05-06 19:22:00,64.8,53.2,29.95,NE,49,0.0,-999.0,66,0.00,,,0.00,WeatherSnoop3.0,2013-05-07 00:22:00,
2013-05-06 19:27:00,64.5,53.3,29.95,NE,50,1.0,-999.0,67,0.00,,,0.00,WeatherSnoop3.0,2013-05-07 00:27:00,
2013-05-06 19:32:00,64.4,53.2,29.95,NE,50,0.0,-999.0,67,0.00,,,0.00,WeatherSnoop3.0,2013-05-07 00:32:00,
2013-05-06 19:37:00,64.2,53.8,29.95,NE,50,0.0,-999.0,69,0.00,,,0.00,WeatherSnoop3.0,2013-05-07 00:37:00,
2013-05-06 19:42:00,64.0,54.0,29.95,NE,51,1.0,-999.0,70,0.00,,,0.00,WeatherSnoop3.0,2013-05-07 00:42:00,
2013-05-06 19:47:00,63.7,54.1,29.95,ENE,63,1.0,-999.0,71,0.00,,,0.00,WeatherSnoop3.0,2013-05-07 00:47:00,
2013-05-06 19:52:00,63.1,54.7,29.96,ENE,63,0.0,-999.0,74,0.00,,,0.00,WeatherSnoop3.0,2013-05-07 00:52:00,
2013-05-06 19:57:00,62.5,54.1,29.96,ENE,62,0.0,-999.0,74,0.00,,,0.00,WeatherSnoop3.0,2013-05-07 00:57:00,
2013-05-06 20:02:00,62.0,54.3,29.96,ENE,62,0.0,-999.0,76,0.00,,,0.00,WeatherSnoop3.0,2013-05-07 01:02:00,
2013-05-06 20:07:00,61.5,54.2,29.96,ENE,63,0.0,-999.0,77,0.00,,,0.00,WeatherSnoop3.0,2013-05-07 01:07:00,
2013-05-06 20:12:00,61.0,53.7,29.96,ENE,63,0.0,-999.0,77,0.00,,,0.00,WeatherSnoop3.0,2013-05-07 01:12:00,
2013-05-06 20:17:00,60.5,54.0,29.96,ENE,62,0.0,-999.0,79,0.00,,,0.00,WeatherSnoop3.0,2013-05-07 01:17:00,
2013-05-06 20:22:00,59.7,53.5,29.96,ENE,62,0.0,-999.0,80,0.00,,,0.00,WeatherSnoop3.0,2013-05-07 01:22:00,
2013-05-06 20:27:00,59.0,53.2,29.96,ENE,63,0.0,-999.0,81,0.00,,,0.00,WeatherSnoop3.0,2013-05-07 01:27:00,
2013-05-06 20:32:00,58.5,53.0,29.96,ENE,63,0.0,-999.0,82,0.00,,,0.00,WeatherSnoop3.0,2013-05-07 01:32:00,
2013-05-06 20:37:00,57.9,52.8,29.96,ENE,63,0.0,-999.0,83,0.00,,,0.00,WeatherSnoop3.0,2013-05-07 01:37:00,
2013-05-06 20:42:00,57.3,52.2,29.96,ENE,63,0.0,-999.0,83,0.00,,,0.00,WeatherSnoop3.0,2013-05-07 01:42:00,
2013-05-06 20:47:00,56.8,51.4,29.96,ENE,63,0.0,-999.0,82,0.00,,,0.00,WeatherSnoop3.0,2013-05-07 01:47:00,
2013-05-06 20:52:00,56.4,51.0,29.96,ENE,62,0.0,-999.0,82,0.00,,,0.00,WeatherSnoop3.0,2013-05-07 01:52:00,
2013-05-06 20:57:00,56.0,50.9,29.96,ENE,63,0.0,-999.0,83,0.00,,,0.00,WeatherSnoop3.0,2013-05-07 01:57:00,
2013-05-06 21:02:00,55.5,50.7,29.96,ENE,63,0.0,-999.0,84,0.00,,,0.00,WeatherSnoop3.0,2013-05-07 02:02:00,
2013-05-06 21:07:00,55.1,50.4,29.96,ENE,63,0.0,-999.0,84,0.00,,,0.00,WeatherSnoop3.0,2013-05-07 02:07:00,
2013-05-06 21:12:00,55.2,50.8,29.97,ENE,62,0.0,-999.0,85,0.00,,,0.00,WeatherSnoop3.0,2013-05-07 02:12:00,
2013-05-06 21:17:00,55.0,50.3,29.97,ENE,63,0.0,-999.0,84,0.00,,,0.00,WeatherSnoop3.0,2013-05-07 02:17:00,
2013-05-06 21:22:00,54.6,50.2,29.97,ENE,63,0.0,-999.0,85,0.00,,,0.00,WeatherSnoop3.0,2013-05-07 02:22:00,
2013-05-06 21:27:00,54.5,50.1,29.97,ENE,63,0.0,-999.0,85,0.00,,,0.00,WeatherSnoop3.0,2013-05-07 02:27:00,
2013-05-06 21:32:00,54.2,50.1,29.97,ENE,62,0.0,-999.0,86,0.00,,,0.00,WeatherSnoop3.0,2013-05-07 02:32:00,
2013-05-06 21:37:00,53.7,49.9,29.97,ENE,62,0.0,-999.0,87,0.00,,,0.00,WeatherSnoop3.0,2013-05-07 02:37:00,
2013-05-06 21:42:00,53.4,49.6,29.97,ENE,63,0.0,-999.0,87,0.00,,,0.00,WeatherSnoop3.0,2013-05-07 02:42:00,
2013-05-06 21:47:00,53.1,49.3,29.97,ENE,63,0.0,-999.0,87,0.00,,,0.00,WeatherSnoop3.0,2013-05-07 02:47:00,
2013-05-06 21:52:00,53.1,49.3,29.97,ENE,62,0.0,-999.0,87,0.00,,,0.00,WeatherSnoop3.0,2013-05-07 02:52:00,
2013-05-06 21:57:00,52.8,49.0,29.97,ENE,63,0.0,-999.0,87,0.00,,,0.00,WeatherSnoop3.0,2013-05-07 02:57:00,
2013-05-06 22:02:00,52.7,49.2,29.97,ENE,63,0.0,-999.0,88,0.00,,,0.00,WeatherSnoop3.0,2013-05-07 03:02:00,
2013-05-06 22:07:00,52.6,49.1,29.97,ENE,62,0.0,-999.0,88,0.00,,,0.00,WeatherSnoop3.0,2013-05-07 03:07:00,
2013-05-06 22:12:00,52.5,49.0,29.97,ENE,63,0.0,-999.0,88,0.00,,,0.00,WeatherSnoop3.0,2013-05-07 03:12:00,
2013-05-06 22:17:00,52.5,49.0,29.98,ENE,63,0.0,-999.0,88,0.00,,,0.00,WeatherSnoop3.0,2013-05-07 03:17:00,
2013-05-06 22:22:00,52.3,49.2,29.98,ENE,63,0.0,-999.0,89,0.00,,,0.00,WeatherSnoop3.0,2013-05-07 03:22:00,
2013-05-06 22:27:00,52.4,49.3,29.98,ENE,63,0.0,-999.0,89,0.00,,,0.00,WeatherSnoop3.0,2013-05-07 03:27:00,
2013-05-06 22:32:00,52.4,49.3,29.98,ENE,63,0.0,-999.0,89,0.00,,,0.00,WeatherSnoop3.0,2013-05-07 03:32:00,
2013-05-06 22:37:00,52.3,49.2,29.98,ENE,64,0.0,-999.0,89,0.00,,,0.00,WeatherSnoop3.0,2013-05-07 03:37:00,
2013-05-06 22:42:00,52.2,49.4,29.97,ENE,63,0.0,-999.0,90,0.00,,,0.00,WeatherSnoop3.0,2013-05-07 03:42:00,
2013-05-06 22:47:00,52.2,49.7,29.97,ENE,65,0.0,-999.0,91,0.00,,,0.00,WeatherSnoop3.0,2013-05-07 03:47:00,
2013-05-06 22:52:00,52.2,49.4,29.98,ENE,65,0.0,-999.0,90,0.00,,,0.00,WeatherSnoop3.0,2013-05-07 03:52:00,
2013-05-06 22:57:00,52.3,49.8,29.98,ENE,65,0.0,-999.0,91,0.00,,,0.00,WeatherSnoop3.0,2013-05-07 03:57:00,
2013-05-06 23:02:00,52.5,49.9,29.98,ENE,65,0.0,-999.0,91,0.00,,,0.00,WeatherSnoop3.0,2013-05-07 04:02:00,
2013-05-06 23:03:00,52.6,50.0,29.98,ENE,65,0.0,-999.0,91,0.00,,,0.00,WeatherSnoop3.0,2013-05-07 04:03:00,
2013-05-06 23:04:00,52.7,50.1,29.98,ENE,65,0.0,-999.0,91,0.00,,,0.00,WeatherSnoop3.0,2013-05-07 04:04:00,
2013-05-06 23:05:00,52.7,49.8,29.98,ENE,65,0.0,-999.0,90,0.00,,,0.00,WeatherSnoop3.0,2013-05-07 04:05:00,
2013-05-06 23:10:00,52.5,49.4,29.98,ENE,65,0.0,-999.0,89,0.00,,,0.00,WeatherSnoop3.0,2013-05-07 04:10:00,
2013-05-06 23:15:00,52.1,49.3,29.98,ENE,65,0.0,-999.0,90,0.00,,,0.00,WeatherSnoop3.0,2013-05-07 04:15:00,
2013-05-06 23:20:00,51.6,48.8,29.97,ENE,65,0.0,-999.0,90,0.00,,,0.00,WeatherSnoop3.0,2013-05-07 04:20:00,
2013-05-06 23:25:00,51.4,49.2,29.97,ENE,65,0.0,-999.0,92,0.00,,,0.00,WeatherSnoop3.0,2013-05-07 04:25:00,
2013-05-06 23:30:00,51.8,49.8,29.97,SE,143,0.0,-999.0,93,0.00,,,0.00,WeatherSnoop3.0,2013-05-07 04:30:00,
2013-05-06 23:35:00,52.4,49.9,29.97,SE,144,0.0,-999.0,91,0.00,,,0.00,WeatherSnoop3.0,2013-05-07 04:35:00,
2013-05-06 23:40:00,52.1,49.3,29.97,SE,143,0.0,-999.0,90,0.00,,,0.00,WeatherSnoop3.0,2013-05-07 04:40:00,
2013-05-06 23:44:00,51.7,49.2,29.97,SE,143,0.0,-999.0,91,0.00,,,0.00,WeatherSnoop3.0,2013-05-07 04:44:00,
2013-05-06 23:49:00,51.4,48.9,29.97,SE,143,0.0,-999.0,91,0.00,,,0.00,WeatherSnoop3.0,2013-05-07 04:49:00,
2013-05-06 23:54:00,51.4,49.2,29.97,SE,143,0.0,-999.0,92,0.00,,,0.00,WeatherSnoop3.0,2013-05-07 04:54:00,
2013-05-06 23:59:00,51.7,49.2,29.97,SE,142,0.0,-999.0,91,0.00,,,0.00,WeatherSnoop3.0,2013-05-07 04:59:00,